Weather History for Hoonah, AK

Change the Weather History Date:

Sunday, September 29, 2013

  Actual Average Record
Temperature  
Mean Temperature 44 °F -  
Max Temperature 50 °F 50 °F 64 °F (2003)
Min Temperature 36 °F 40 °F 33 °F (1996)
Degree Days  
Heating Degree Days 22    
Moisture  
Dew Point 43 °F    
Average Humidity 98    
Maximum Humidity 100    
Minimum Humidity 83    
Precipitation  
Precipitation 0.00 in - - ()
Sea Level Pressure  
Sea Level Pressure 29.02 in    
Wind  
Wind Speed 1 mph (NNW)    
Max Wind Speed 5 mph    
Max Gust Speed -    
Visibility 6 miles    
Events Fog , Rain    
Averages and records for this station are not official NWS values.
T = Trace of Precipitation, MM = Missing Value Source: NWS Daily Summary

Daily Weather History Graph

Daily Weather History Graph

Search for Another Location

Airport:

Trip Planner

Search our weather history database for the weather conditions in past years. The results will help you decide how hot, cold, wet, or windy it might be!

Date:

Astronomy

Sep. 29, 2013 Rise Set
Actual Time 7:02 AM AKDT 6:40 PM AKDT
Civil Twilight 6:23 AM AKDT 7:19 PM AKDT
Nautical Twilight 5:37 AM AKDT 8:05 PM AKDT
Astronomical Twilight 4:48 AM AKDT 8:53 PM AKDT
Moon 12:53 AM AKDT (9/29) 4:31 PM AKDT (9/29)
Length of Visible Light 12h 55m
Length of Day
11h 37m
Waning Crescent, 26% of the Moon is Illuminated
Sep 29
Waning Crescent
Oct 4
New
Oct 11
First Quarter
Oct 18
Full
Oct 26
Last Quarter

Hourly Weather History & Observations

Time (AKDT) Temp. Windchill Dew Point Humidity Pressure Visibility Wind Dir Wind Speed Gust Speed Precip Events Conditions
12:56 AM 42.8 °F - 42.8 °F 100% 28.97 in 10.0 mi Calm Calm - N/A   Overcast
1:56 AM 43.9 °F - 43.9 °F 100% 28.98 in 10.0 mi Calm Calm - N/A   Overcast
2:20 AM 44.6 °F - 44.6 °F 100% 28.97 in 10.0 mi Calm Calm - 0.00 in Rain Light Rain
2:56 AM 43.9 °F - 43.9 °F 100% 28.98 in 10.0 mi Calm Calm - 0.00 in   Overcast
3:10 AM 44.6 °F - 44.6 °F 100% 28.97 in 10.0 mi Calm Calm - N/A   Overcast
3:56 AM 44.6 °F - 44.6 °F 100% 28.97 in 10.0 mi Calm Calm - N/A Rain Light Rain
4:10 AM 44.6 °F - 44.6 °F 100% 28.97 in 10.0 mi Calm Calm - 0.00 in   Overcast
4:22 AM 44.6 °F - 44.6 °F 100% 28.97 in 10.0 mi Calm Calm - 0.00 in   Overcast
4:56 AM 43.0 °F - 43.0 °F 100% 28.98 in 5.0 mi Calm Calm - 0.00 in   Overcast
5:05 AM 42.8 °F - 42.8 °F 100% 28.97 in 3.0 mi Calm Calm - N/A   Overcast
5:44 AM 42.8 °F - 42.8 °F 100% 28.97 in 1.5 mi Calm Calm - N/A   Overcast
5:56 AM 43.0 °F - 43.0 °F 100% 28.98 in 0.2 mi Calm Calm - N/A Fog Fog
6:16 AM 42.8 °F - 42.8 °F 100% 28.97 in 0.8 mi Calm Calm - N/A   Mostly Cloudy
6:24 AM 42.8 °F - 42.8 °F 100% 28.98 in 1.2 mi Calm Calm - N/A   Overcast
6:30 AM 42.8 °F 41.1 °F 42.8 °F 100% 28.98 in 2.0 mi ENE 3.5 mph - N/A   Overcast
6:44 AM 42.8 °F - 42.8 °F 100% 28.98 in 10.0 mi Calm Calm - N/A   Mostly Cloudy
6:56 AM 42.8 °F - 42.8 °F 100% 28.98 in 1.2 mi Calm Calm - N/A   Mostly Cloudy
6:58 AM 42.8 °F - 42.8 °F 100% 28.98 in 0.8 mi Calm Calm - N/A   Mostly Cloudy
7:03 AM 41.0 °F - 41.0 °F 100% 28.98 in 0.2 mi Calm Calm - N/A Fog Fog
7:26 AM 39.2 °F - 39.2 °F 100% 28.98 in 0.2 mi Calm Calm - N/A Fog Fog
7:56 AM 39.9 °F - 39.9 °F 100% 28.98 in 0.2 mi Calm Calm - N/A Fog Fog
8:28 AM 39.2 °F 37.0 °F 39.2 °F 100% 28.98 in 0.8 mi ESE 3.5 mph - N/A   Mostly Cloudy
8:33 AM 41.0 °F 39.0 °F 41.0 °F 100% 28.98 in 1.2 mi ESE 3.5 mph - N/A   Mostly Cloudy
8:35 AM 41.0 °F - 41.0 °F 100% 28.98 in 2.0 mi Calm Calm - N/A   Mostly Cloudy
8:40 AM 41.0 °F 39.0 °F 41.0 °F 100% 28.98 in 9.0 mi East 3.5 mph - N/A   Scattered Clouds
8:56 AM 41.9 °F - 41.9 °F 100% 28.99 in 10.0 mi Calm Calm - N/A   Partly Cloudy
9:56 AM 45.9 °F - 45.9 °F 100% 29.00 in 10.0 mi Calm Calm - N/A   Clear
10:17 AM 46.4 °F - 46.4 °F 100% 29.00 in 10.0 mi Calm Calm - N/A   Mostly Cloudy
10:56 AM 46.9 °F - 46.9 °F 100% 29.01 in 10.0 mi West 4.6 mph - N/A   Mostly Cloudy
11:22 AM 46.4 °F 45.2 °F 46.4 °F 100% 29.01 in 10.0 mi North 3.5 mph - N/A   Mostly Cloudy
11:56 AM 47.8 °F - 46.9 °F 97% 29.02 in 10.0 mi West 3.5 mph - 0.00 in Rain Light Rain
12:56 PM 50.0 °F - 46.9 °F 89% 29.03 in 10.0 mi Calm Calm - 0.00 in   Mostly Cloudy
1:56 PM 50.9 °F - 47.8 °F 89% 29.05 in 10.0 mi West 3.5 mph - N/A   Mostly Cloudy
2:56 PM 50.9 °F - 48.9 °F 93% 29.05 in 10.0 mi West 3.5 mph - 0.00 in   Scattered Clouds
3:56 PM 50.9 °F - 47.8 °F 89% 29.07 in 10.0 mi Calm Calm - 0.00 in   Overcast
4:56 PM 50.9 °F - 45.9 °F 83% 29.08 in 10.0 mi Variable 3.5 mph - N/A   Overcast
5:56 PM 50.0 °F - 46.9 °F 89% 29.10 in 10.0 mi Calm Calm - N/A   Overcast
6:56 PM 46.9 °F - 46.9 °F 100% 29.11 in 10.0 mi Calm Calm - N/A   Mostly Cloudy
7:56 PM 45.0 °F - 45.0 °F 100% 29.12 in 10.0 mi Calm Calm - N/A   Scattered Clouds
8:56 PM 41.9 °F - 41.9 °F 100% 29.13 in 1.0 mi Calm Calm - N/A   Clear
9:03 PM 42.8 °F - 42.8 °F 100% 29.12 in 1.5 mi Calm Calm - N/A   Clear
9:56 PM 38.8 °F - 38.8 °F 100% 29.13 in 2.0 mi Calm Calm - N/A   Clear
10:16 PM 39.2 °F - 39.2 °F 100% 29.13 in 8.0 mi Calm Calm - N/A   Clear
10:56 PM 37.9 °F - 37.9 °F 100% 29.15 in 10.0 mi Calm Calm - N/A   Clear
11:56 PM 36.9 °F - 36.9 °F 100% 29.17 in 10.0 mi Calm Calm - N/A   Clear